TOURFACTS.DK  
Stats and Facts from Tour de France.

Tour de France 2017 starts in 5 days
  Riders   Stages   Teams   Summits   Yearly  


 
Search by year

 After:  2016 - Stage 21:
  14626 starters.
  5086 different riders.
  634 teams.
  2211 stages.
  454 restdays.
  436049.60 km.
  5622 abandonnees.


Top 3
Christopher Froome89:04:48
Romain Bardet89:08:53
Nairo Quintana89:09:09
Rafal Majka209 pt.
Thomas De Gendt130 pt.
Jarlinson Pantano ..121 pt.
Peter Sagan470 pt.
Marcel Kittel228 pt.
Michael Matthews199 pt.
Adam Yates89:09:30
Louis Meintjes89:11:46
Emanuel Buchmann89:52:28
Facts from Tour de France 1938
  |   Stages.  |   Stage winners.  |   Days in yellow  |   Average speed.  |   Route.  |   Teams.  |   All riders.  |   Rookies.  |   Withdrawls.  |  

  |   GC.  |   Polka  |   Green  |   White  |   Summits. (In tour)  |   Summits. (Points)  |   Miscellaneous.  |  

Stage 5 on 10 - 07 - 1938
         Owning:    Jean Majerus    
Pick a stage:  1 2 3 4a 4b 4c 5 6a 6b 7 8 9 10a 10b 10c 11 12 13 14 15 16 17a 17b 18 19 20a 20b 20c 21
  RoyanBordeaux | Dist: 198.00 km.

Average speed for all riders in stage:  37,809 km./hr.
    Place:Name:Team:Time:Km/h:
BELÉloi MeulenbergBELBelgium05:12:42  +  00:00:00=37,992 
ITAGlauco ServadeiITAItaly05:12:42  +  00:00:00=37,992 
ITAAldo BiniITAItaly05:12:42  +  00:00:00=37,992 
4 FRAJean FréchautFRAFrance05:12:42  +  00:00:00=37,992 
5 BELSylvère MaesBELBelgium05:12:42  +  00:00:00=37,992 
6 BELMarcel KintBELBelgium05:12:42  +  00:00:00=37,992 
7 BELFélicien VervaeckeBELBelgium05:12:42  +  00:00:00=37,992 
8 BELAlbertin DisseauxBELBelgium05:12:42  +  00:00:00=37,992 
9 BELEmile Masson jr.BELBelgium05:12:42  +  00:00:00=37,992 
10 BELJules LowieBELBelgium05:12:42  +  00:00:00=37,992 
11 BELEdward VissersBELBelgium05:12:42  +  00:00:00=37,992 
12 ITAGino BartaliITAItaly05:12:42  +  00:00:00=37,992 
13 ITAVasco BergamaschiITAItaly05:12:42  +  00:00:00=37,992 
14 ITAEnrico MolloITAItaly05:12:42  +  00:00:00=37,992 
15 FRAJules RossiITAItaly05:12:42  +  00:00:00=37,992 
16 ITAMario ViciniITAItaly05:12:42  +  00:00:00=37,992 
17 ITAGiordano CotturITAItaly05:12:42  +  00:00:00=37,992 
18 ITALuigi IntrozziITAItaly05:12:42  +  00:00:00=37,992 
19 ITASettimo SimoniniITAItaly05:12:42  +  00:00:00=37,992 
20 ITANello TroggiITAItaly05:12:42  +  00:00:00=37,992 
21 DEUFritz SchellerDEUGermany05:12:42  +  00:00:00=37,992 
22 DEUHerbert HauswaldDEUGermany05:12:42  +  00:00:00=37,992 
23 DEUHeinz WenglerDEUGermany05:12:42  +  00:00:00=37,992 
24 DEUReinhold WendelDEUGermany05:12:42  +  00:00:00=37,992 
25 DEUJosef ArentsDEUGermany05:12:42  +  00:00:00=37,992 
26 DEUWilli OberbeckDEUGermany05:12:42  +  00:00:00=37,992 
27 FRAAntonin MagneFRAFrance05:12:42  +  00:00:00=37,992 
28 FRAPierre GallienFRAFrance05:12:42  +  00:00:00=37,992 
29 FRAAuguste MalletFRAFrance05:12:42  +  00:00:00=37,992 
30 FRAMarcel LaurentFRAFrance05:12:42  +  00:00:00=37,992 
31 FRAPierre JaminetFRAFrance05:12:42  +  00:00:00=37,992 
32 FRAGeorges NaisseFRAFrance05:12:42  +  00:00:00=37,992 
33 FRAVictor CossonFRAFrance05:12:42  +  00:00:00=37,992 
34 FRAGeorges SpeicherFRAFrance05:12:42  +  00:00:00=37,992 
35 ESPMariano CañardoESPSpain05:12:42  +  00:00:00=37,992 
36 ESPJacques AlzineESPSpain05:12:42  +  00:00:00=37,992 
37 ESPJulián BerrenderoESPSpain05:12:42  +  00:00:00=37,992 
38 ESPRafael RamosESPSpain05:12:42  +  00:00:00=37,992 
39 ESPEmiliano AlvarezESPSpain05:12:42  +  00:00:00=37,992 
40 BELRené PédroliCHESwitzerland05:12:42  +  00:00:00=37,992 
41 CHETheo PerretCHESwitzerland05:12:42  +  00:00:00=37,992 
42 CHEBruno BesanaCHESwitzerland05:12:42  +  00:00:00=37,992 
43 NLDPiet Van NekNLDHolland05:12:42  +  00:00:00=37,992 
44 NLDJef DominicusNLDHolland05:12:42  +  00:00:00=37,992 
45 NLDTheo MiddelkampNLDHolland05:12:42  +  00:00:00=37,992 
46 NLDAntoon Van SchendelNLDHolland05:12:42  +  00:00:00=37,992 
47 FRAPierre ClemensLUXLuxembourg05:12:42  +  00:00:00=37,992 
48 FRAMathias ClemensLUXLuxembourg05:12:42  +  00:00:00=37,992 
49 LUXJean MajerusLUXLuxembourg05:12:42  +  00:00:00=37,992 
50 LUXFrançois NeuensLUXLuxembourg05:12:42  +  00:00:00=37,992 
51 LUXArsène MerschLUXLuxembourg05:12:42  +  00:00:00=37,992 
52 LUXChristophe DidierLUXLuxembourg05:12:42  +  00:00:00=37,992 
53 FRAAndré LeducqFRACadets05:12:42  +  00:00:00=37,992 
54 CHERaymond LouviotFRACadets05:12:42  +  00:00:00=37,992 
55 FRARaoul LesueurFRACadets05:12:42  +  00:00:00=37,992 
56 FRAFabien GalateauFRACadets05:12:42  +  00:00:00=37,992 
57 FRARobert TanneveauFRACadets05:12:42  +  00:00:00=37,992 
58 FRARaymond PassatFRACadets05:12:42  +  00:00:00=37,992 
59 CHEBruno CariniFRACadets05:12:42  +  00:00:00=37,992 
60 FRALucien Le GuevelFRABluets05:12:42  +  00:00:00=37,992 
61 ITAOreste BernardoniFRABluets05:12:42  +  00:00:00=37,992 
62 FRAEloi TassinFRABluets05:12:42  +  00:00:00=37,992 
63 FRACamille LeroyFRABluets05:12:42  +  00:00:00=37,992 
64 ITAPierre SpaperiFRABluets05:12:42  +  00:00:00=37,992 
65 FRAAlbert BourlonFRABluets05:13:14  +  00:00:32=37,927 
66 ITADante GianelloFRABluets05:13:14  +  00:00:32=37,927 
67 FRAJean-Marie GoasmatFRAFrance05:13:14  +  00:00:32=37,927 
68 CHEPaul EgliCHESwitzerland05:13:47  +  00:01:05=37,861 
69 DEUOtto WeckerlingDEUGermany05:13:58  +  00:01:16=37,838 
70 BELConstant LauwersBELBelgium05:13:58  +  00:01:16=37,838 
71 FRAJean FontenayFRACadets05:13:58  +  00:01:16=37,838 
72 DEUPaul LanghoffDEUGermany05:13:58  +  00:01:16=37,838 
73 CHEAlbert KnuttiCHESwitzerland05:13:58  +  00:01:16=37,838 
74 FRAGaston GrimbertFRABluets05:13:58  +  00:01:16=37,838 
75 FRALucien LamureFRABluets05:14:58  +  00:02:16=37,718 
76 NLDGerrit SchulteNLDHolland05:15:04  +  00:02:22=37,706 
77 DEUHermann SchildDEUGermany05:15:04  +  00:02:22=37,706 
78 ITAGiuseppe MartanoITAItaly05:15:20  +  00:02:38=37,674 
79 FRAAndre LeforgeFRABluets05:15:20  +  00:02:38=37,674 
80 CHEEdgar HehlenCHESwitzerland05:15:20  +  00:02:38=37,674 
81 FRAYvan MarieFRACadets05:16:00  +  00:03:18=37,595 
82 BELRene WalschotBELBelgium05:16:00  +  00:03:18=37,595 
83 BELFrançois NeuvilleBELBelgium05:16:50  +  00:04:08=37,496 
84 BELTheo PirmezBELBelgium05:16:50  +  00:04:08=37,496 
85 DEUKarl HeideDEUGermany05:16:50  +  00:04:08=37,496 
86 FRARobert OubronFRACadets05:20:32  +  00:07:50=37,063 
87 FRAJoseph GoutorbeFRABluets05:23:49  +  00:11:07=36,687 
88 DEUPaul SeidelDEUGermany05:23:49  +  00:11:07=36,687 
89 FRASauveur DucazeauxFRACadets05:23:49  +  00:11:07=36,687 
90 NLDJanus HellemonsNLDHolland05:31:25  +  00:18:43=35,846 
91 FRASylvain MarcaillouFRAFrance05:45:54  +  00:33:12=34,345 


Todays birthdays.

1899  Ardito Bresciani
1908  Renato Scorticati
1927  Marcel Huber
1941  Roger Cooreman
1942  Luis Santamarina
1952  Ferdi Van den Haute
1956  Graziano Salvietti
1961  Massimo Ghirotto
1963  Thierry Marie
1968  Dominik Krieger
1979  Sébastien Joly
1981  Yohann Gène
1982  William Bonnet
1986  Marcel Wyss
1987  Rafael Valls Ferri
1988  Egor Silin